STW1 LGSK-LGHI

Flight info

Callsign STW1
Flight time 0h 36m
Altitude 19000
Route ETEKA W58 ATROX DCT PANOX
Aircraft P180/L-SBDFGM3RWXY/LB1

Departure

Time 2026-04-29 15:24
Airport Skiathos Island National Airport (LGSK)

Arrival

Time 2026-04-29 16:00
Airport Chios Island National Airport (LGHI)
Time Latitude Longitude Altitude Speed Heading
2026-04-29 15:11 39.17609 23.50184 33 ft 0 kts 109°
2026-04-29 15:23 39.17607 23.50191 33 ft 2 kts 110°
2026-04-29 15:23 39.17591 23.50216 33 ft 6 kts 139°
2026-04-29 15:23 39.17575 23.50307 35 ft 16 kts 30°
2026-04-29 15:23 39.17764 23.50391 32 ft 74 kts 18°
2026-04-29 15:24 39.18615 23.50765 179 ft 166 kts 19°
2026-04-29 15:24 39.19775 23.51257 1176 ft 180 kts 21°
2026-04-29 15:24 39.20969 23.51776 2329 ft 185 kts 20°
2026-04-29 15:24 39.22175 23.52316 3508 ft 181 kts 19°
2026-04-29 15:25 39.23352 23.52858 4601 ft 177 kts 17°
2026-04-29 15:25 39.24521 23.53380 5613 ft 178 kts 16°
2026-04-29 15:25 39.25693 23.53909 6327 ft 183 kts 16°
2026-04-29 15:25 39.26874 23.54562 7012 ft 188 kts 33°
2026-04-29 15:26 39.27706 23.55886 7682 ft 194 kts 65°
2026-04-29 15:26 39.27908 23.57607 8363 ft 197 kts 97°
2026-04-29 15:26 39.27525 23.59283 9020 ft 199 kts 111°
2026-04-29 15:26 39.27057 23.60986 9685 ft 202 kts 110°
2026-04-29 15:27 39.26593 23.62719 10309 ft 204 kts 110°
2026-04-29 15:27 39.26123 23.64465 10894 ft 207 kts 110°
2026-04-29 15:27 39.25646 23.66212 11472 ft 209 kts 111°
2026-04-29 15:27 39.25136 23.67984 12044 ft 211 kts 111°
2026-04-29 15:28 39.24620 23.69776 12601 ft 214 kts 111°
2026-04-29 15:28 39.24278 23.70974 12966 ft 215 kts 110°
2026-04-29 15:28 39.23586 23.73407 13690 ft 218 kts 110°
2026-04-29 15:28 39.23058 23.75260 14174 ft 220 kts 110°
2026-04-29 15:29 39.22518 23.77128 14678 ft 222 kts 110°
2026-04-29 15:29 39.21443 23.80886 15665 ft 226 kts 110°
2026-04-29 15:30 39.20345 23.84725 16618 ft 230 kts 110°
2026-04-29 15:30 39.19786 23.86675 17073 ft 232 kts 110°
2026-04-29 15:30 39.19224 23.88637 17552 ft 234 kts 110°
2026-04-29 15:30 39.18662 23.90599 17994 ft 236 kts 110°
2026-04-29 15:31 39.18088 23.92599 18429 ft 238 kts 110°
2026-04-29 15:31 39.17510 23.94611 18816 ft 239 kts 110°
2026-04-29 15:31 39.16926 23.96644 19012 ft 251 kts 110°
2026-04-29 15:31 39.16295 23.98838 19061 ft 268 kts 110°
2026-04-29 15:32 39.15756 24.01208 19068 ft 283 kts 98°
2026-04-29 15:32 39.15580 24.03788 19063 ft 295 kts 92°
2026-04-29 15:32 39.15438 24.06442 19067 ft 306 kts 93°
2026-04-29 15:32 39.15263 24.09225 19070 ft 315 kts 94°
2026-04-29 15:33 39.15080 24.12074 19067 ft 322 kts 94°
2026-04-29 15:33 39.14902 24.14984 19065 ft 327 kts 93°
2026-04-29 15:33 39.14728 24.17897 19070 ft 332 kts 93°
2026-04-29 15:33 39.14544 24.20894 19065 ft 336 kts 94°
2026-04-29 15:34 39.14355 24.23911 19067 ft 339 kts 94°
2026-04-29 15:34 39.14165 24.26941 19068 ft 341 kts 94°
2026-04-29 15:34 39.13975 24.29993 19066 ft 343 kts 94°
2026-04-29 15:34 39.13784 24.33061 19070 ft 344 kts 94°
2026-04-29 15:35 39.13589 24.36139 19072 ft 345 kts 94°
2026-04-29 15:35 39.13223 24.39172 19063 ft 347 kts 104°
2026-04-29 15:35 39.12402 24.42106 19049 ft 348 kts 115°
2026-04-29 15:35 39.11213 24.44781 19050 ft 348 kts 125°
2026-04-29 15:36 39.09755 24.47277 19055 ft 348 kts 128°
2026-04-29 15:36 39.08306 24.49756 19058 ft 348 kts 127°
2026-04-29 15:36 39.06865 24.52279 19059 ft 348 kts 127°
2026-04-29 15:36 39.05421 24.54799 19051 ft 348 kts 127°
2026-04-29 15:37 39.03985 24.57271 19059 ft 348 kts 128°
2026-04-29 15:37 39.02536 24.59757 19048 ft 348 kts 127°
2026-04-29 15:37 39.01086 24.62259 19061 ft 348 kts 127°
2026-04-29 15:37 38.99650 24.64741 19053 ft 348 kts 127°
2026-04-29 15:38 38.98202 24.67238 19052 ft 348 kts 127°
2026-04-29 15:38 38.96750 24.69733 19055 ft 348 kts 127°
2026-04-29 15:38 38.95303 24.72220 19059 ft 347 kts 127°
2026-04-29 15:38 38.93855 24.74709 19058 ft 347 kts 127°
2026-04-29 15:39 38.92406 24.77198 19062 ft 347 kts 127°
2026-04-29 15:39 38.90975 24.79653 19059 ft 347 kts 127°
2026-04-29 15:39 38.89521 24.82145 19061 ft 347 kts 127°
2026-04-29 15:39 38.88075 24.84621 19059 ft 347 kts 127°
2026-04-29 15:40 38.86624 24.87104 19060 ft 347 kts 127°
2026-04-29 15:40 38.85177 24.89581 19058 ft 346 kts 127°
2026-04-29 15:40 38.83744 24.92029 19058 ft 346 kts 127°
2026-04-29 15:40 38.82297 24.94500 19058 ft 346 kts 127°
2026-04-29 15:41 38.80850 24.96970 19059 ft 346 kts 127°
2026-04-29 15:41 38.79398 24.99445 19060 ft 346 kts 127°
2026-04-29 15:41 38.77952 25.01909 19055 ft 346 kts 127°
2026-04-29 15:41 38.76501 25.04378 19054 ft 346 kts 127°
2026-04-29 15:42 38.75072 25.06809 19055 ft 346 kts 127°
2026-04-29 15:42 38.73616 25.09275 19056 ft 345 kts 128°
2026-04-29 15:42 38.72155 25.11737 19054 ft 345 kts 128°
2026-04-29 15:42 38.70726 25.14164 19056 ft 345 kts 127°
2026-04-29 15:43 38.69284 25.16622 19057 ft 345 kts 127°
2026-04-29 15:43 38.67826 25.19095 19052 ft 345 kts 127°
2026-04-29 15:43 38.66389 25.21527 18983 ft 347 kts 127°
2026-04-29 15:43 38.64912 25.24027 18593 ft 352 kts 127°
2026-04-29 15:44 38.63464 25.26494 18113 ft 342 kts 127°
2026-04-29 15:44 38.62045 25.28898 17657 ft 333 kts 127°
2026-04-29 15:44 38.60674 25.31207 17223 ft 325 kts 127°
2026-04-29 15:44 38.59316 25.33494 16798 ft 319 kts 127°
2026-04-29 15:45 38.57977 25.35751 16373 ft 314 kts 127°
2026-04-29 15:45 38.56677 25.37946 15971 ft 310 kts 127°
2026-04-29 15:45 38.55390 25.40114 15568 ft 306 kts 127°
2026-04-29 15:45 38.54111 25.42264 15168 ft 303 kts 127°
2026-04-29 15:46 38.52838 25.44405 14764 ft 301 kts 127°
2026-04-29 15:46 38.51570 25.46537 14365 ft 299 kts 127°
2026-04-29 15:46 38.50323 25.48631 13980 ft 298 kts 127°
2026-04-29 15:46 38.49067 25.50738 13556 ft 296 kts 127°
2026-04-29 15:47 38.47826 25.52819 13161 ft 293 kts 127°
2026-04-29 15:47 38.46598 25.54881 12777 ft 290 kts 127°
2026-04-29 15:47 38.45404 25.56875 12402 ft 281 kts 127°
2026-04-29 15:47 38.44215 25.58864 12027 ft 281 kts 127°
2026-04-29 15:48 38.43027 25.60861 11647 ft 281 kts 127°
2026-04-29 15:48 38.41836 25.62854 11273 ft 281 kts 127°
2026-04-29 15:48 38.40657 25.64822 10914 ft 280 kts 127°
2026-04-29 15:48 38.39486 25.66778 10548 ft 280 kts 127°
2026-04-29 15:49 38.38296 25.68764 10173 ft 279 kts 127°
2026-04-29 15:49 38.37116 25.70733 9800 ft 278 kts 127°
2026-04-29 15:49 38.35959 25.72662 9418 ft 277 kts 127°
2026-04-29 15:49 38.34790 25.74609 9048 ft 275 kts 127°
2026-04-29 15:50 38.33630 25.76540 8687 ft 273 kts 127°
2026-04-29 15:50 38.32489 25.78440 8330 ft 271 kts 126°
2026-04-29 15:50 38.31342 25.80347 7972 ft 270 kts 126°
2026-04-29 15:50 38.30204 25.82236 7616 ft 263 kts 126°
2026-04-29 15:51 38.29113 25.84035 7277 ft 250 kts 126°
2026-04-29 15:51 38.28077 25.85751 6953 ft 239 kts 126°
2026-04-29 15:51 38.27081 25.87408 6644 ft 231 kts 125°
2026-04-29 15:51 38.26115 25.89013 6332 ft 226 kts 125°
2026-04-29 15:52 38.25169 25.90588 6009 ft 221 kts 123°
2026-04-29 15:52 38.24329 25.92215 5606 ft 219 kts 120°
2026-04-29 15:52 38.23511 25.93817 5241 ft 217 kts 121°
2026-04-29 15:52 38.22693 25.95413 4872 ft 213 kts 120°
2026-04-29 15:53 38.21887 25.96980 4515 ft 209 kts 121°
2026-04-29 15:53 38.21105 25.98511 4164 ft 204 kts 120°
2026-04-29 15:53 38.20339 26.00010 3822 ft 200 kts 120°
2026-04-29 15:53 38.19589 26.01479 3493 ft 195 kts 121°
2026-04-29 15:54 38.18858 26.02905 3168 ft 194 kts 120°
2026-04-29 15:54 38.18131 26.04325 2839 ft 189 kts 121°
2026-04-29 15:54 38.17423 26.05708 2527 ft 185 kts 121°
2026-04-29 15:54 38.16735 26.07081 2333 ft 181 kts 117°
2026-04-29 15:55 38.16445 26.08558 2306 ft 169 kts 87°
2026-04-29 15:55 38.16700 26.09962 2305 ft 163 kts 62°
2026-04-29 15:55 38.17393 26.11068 2303 ft 159 kts 37°
2026-04-29 15:55 38.18369 26.11679 2298 ft 158 kts 14°
2026-04-29 15:56 38.19471 26.11710 2303 ft 161 kts 349°
2026-04-29 15:56 38.20567 26.11414 2294 ft 160 kts 358°
2026-04-29 15:56 38.21636 26.11591 2278 ft 156 kts
2026-04-29 15:56 38.22649 26.11768 2133 ft 142 kts
2026-04-29 15:57 38.23586 26.11907 2027 ft 132 kts
2026-04-29 15:57 38.24490 26.12047 1964 ft 129 kts
2026-04-29 15:57 38.25391 26.12212 1915 ft 133 kts
2026-04-29 15:57 38.26321 26.12383 1790 ft 137 kts
2026-04-29 15:58 38.27288 26.12564 1590 ft 143 kts
2026-04-29 15:58 38.28258 26.12778 1476 ft 140 kts 10°
2026-04-29 15:58 38.29140 26.12974 1125 ft 123 kts
2026-04-29 15:58 38.29939 26.13133 847 ft 114 kts
2026-04-29 15:59 38.30756 26.13305 709 ft 121 kts
2026-04-29 15:59 38.31304 26.13417 622 ft 119 kts 10°
2026-04-29 15:59 38.32103 26.13596 413 ft 112 kts
2026-04-29 15:59 38.33121 26.13803 180 ft 113 kts
2026-04-29 16:00 38.33638 26.13910 73 ft 108 kts 11°
2026-04-29 16:00 38.34309 26.14050 23 ft 81 kts
2026-04-29 16:00 38.34622 26.14118 23 ft 10 kts 19°
2026-04-29 16:00 38.34606 26.14125 25 ft 7 kts 218°
2026-04-29 16:01 38.34552 26.14138 23 ft 10 kts 146°
2026-04-29 16:01 38.34490 26.14191 23 ft 5 kts 165°
2026-04-29 16:01 38.34489 26.14191 23 ft 0 kts 165°
2026-04-29 16:02 38.34480 26.14194 23 ft 0 kts 164°
2026-04-29 16:03 38.34469 26.14195 23 ft 6 kts 167°
2026-04-29 16:03 38.34468 26.14247 23 ft 7 kts 11°
2026-04-29 16:03 38.34482 26.14233 23 ft 0 kts 281°